Location: Lake Crest
(37.6062°N, 88.9176°W)
Time: 09:51:29
(UTC+00:00)

Meteor 1-13 Rocket - Pass Details

Date: 15 December 2019
Orbit: 831 x 912 km, 81.3° (Epoch: 26 January)

Event Time Altitude Azimuth Distance (km) Brightness Sun altitude
Rises 00:39:54 0° 188° (S) 3,425 7.6 -23.4°
Reaches altitude 10° 00:42:20 10° 188° (S) 2,481 6.9 -23.8°
Maximum altitude 00:47:58 88° 279° (W) 851 4.1 -24.9°
Enters shadow 00:50:36 33° 7° (N) 1,382 5.1 -25.4°
